Location: Dana
(41.8364°N, 106.7042°W)
Time: 14:38:20
(UTC+00:00)

Tiros 1 despin weight - Pass Details

Date: 11 May 2026
Orbit: 554 x 591 km, 48.2° (Epoch: 6 June)

Event Time Altitude Azimuth Distance (km) Brightness Sun altitude
Rises 16:54:26 0° 289° (WNW) 2,733 ? 53.7°
Reaches altitude 10° 16:56:50 10° 299° (WNW) 1,836 ? 54.1°
Maximum altitude 17:00:42 35° 6° (N) 910 ? 54.7°
Drops below altitude 10° 17:04:33 10° 73° (ENE) 1,834 ? 55.3°
Sets 17:06:57 0° 82° (E) 2,731 ? 55.6°
